QPF
0.00 0.00 0.00 0.00 0.00 0.00 0.00 0.01 0.01 0.00 0.00 0.00 0.00 0.00 0.00 0.00 0.00 0.00 0.00 0.00 0.00 0.00 0.00 0.00 0.00 0.00 0.00 0.00 0.01 0.01 0.01 0.01 0.01 0.01 0.01 0.02 0.01 0.00 0.00 0.00 0.00 0.00 0.00 0.00
0.00 0.00 0.00 0.00 0.00 0.00 0.00 0.00 0.00 0.00 0.00 0.00 0.00 0.00 0.00 0.00 0.00 0.00 0.00 0.00 0.00 0.00 0.00 0.00 0.00 0.00 0.00 0.00 0.00 0.00 0.00 0.00 0.00 0.00 0.00 0.01 0.00 0.00 0.00 0.00 0.00 0.00 0.00 0.00
0.00 0.00 0.00 0.00 0.00 0.00 0.00 0.00 0.00 0.00 0.00 0.00 0.00 0.00 0.00 0.00 0.00 0.00 0.00 0.00 0.00 0.00 0.00 0.00 0.00 0.00 0.00 0.00 0.00 0.00 0.00 0.00 0.00 0.00 0.00 0.00 0.00 0.00 0.00 0.00 0.00 0.00 0.00 0.00
0.00 0.00 0.00 0.00 0.00 0.00 0.00 0.00 0.00 0.00 0.00 0.00 0.00 0.00 0.00 0.00 0.00 0.00 0.00 0.00 0.00 0.00 0.00 0.00 0.00 0.00 0.00 0.00 0.00 0.00 0.00 0.00 0.00 0.00 0.00 0.00 0.00 0.00 0.00 0.00 0.00 0.00 0.00 0.00
0.00 0.00 0.00 0.00 0.00 0.00 0.00 0.00 0.00 0.00 0.00 0.00 0.00 0.00 0.00 0.00 0.00 0.00 0.00 0.00 0.00 0.00 0.00 0.00 0.00 0.00 0.00 0.00 0.00 0.00 0.00 0.00 0.00 0.00 0.00 0.00 0.00 0.00 0.00 0.00 0.00 0.00 0.00 0.00
0.00 0.00 0.00 0.00 0.00 0.00 0.00 0.00 0.00 0.00 0.00 0.00 0.00 0.00 0.00 0.00 0.00 0.00 0.00 0.00 0.00 0.00 0.00 0.00 0.00 0.00 0.00 0.00 0.00 0.00 0.00 0.00 0.00 0.00 0.00 0.00 0.00 0.00 0.00 0.00 0.00 0.00 0.00 0.00
0.00 0.00 0.00 0.00 0.00 0.00 0.00 0.00 0.00 0.00 0.00 0.00 0.00 0.00 0.00 0.00 0.00 0.00 0.00 0.00 0.00 0.00 0.00 0.00 0.00 0.00 0.00 0.00 0.00 0.00 0.00 0.00 0.00 0.00 0.00 0.00 0.00 0.00 0.00 0.00 0.00 0.00 0.00 0.00
0.00 0.00 0.00 0.00 0.00 0.00 0.00 0.00 0.00 0.00 0.00 0.00 0.00 0.00 0.00 0.00 0.00 0.00 0.00 0.00 0.00 0.00 0.00 0.00 0.00 0.00 0.00 0.00 0.00 0.00 0.00 0.00 0.00 0.00 0.00 0.00 0.00 0.00 0.00 0.00 0.00 0.00 0.00 0.00
0.00 0.00 0.00 0.00 0.00 0.00 0.00 0.00 0.00 0.00 0.00 0.00 0.00 0.00 0.00 0.00 0.00 0.00 0.00 0.00 0.00 0.00 0.00 0.00 0.00 0.00 0.00 0.00 0.00 0.00 0.00 0.00 0.00 0.00 0.00 0.00 0.00 0.00 0.00 0.00 0.00 0.00 0.00 0.00
0.00 0.00 0.00 0.00 0.00 0.00 0.00 0.00 0.00 0.00 0.00 0.00 0.00 0.00 0.00 0.00 0.00 0.00 0.00 0.00 0.00 0.00 0.00 0.00 0.00 0.00 0.00 0.00 0.00 0.00 0.00 0.00 0.00 0.00 0.00 0.00 0.00 0.00 0.00 0.00 0.00 0.00 0.00 0.00
0.00 0.00 0.00 0.00 0.00 0.00 0.00 0.00 0.00 0.00 0.00 0.00 0.00 0.00 0.00 0.00 0.00 0.00 0.00 0.00 0.00 0.00 0.00 0.00 0.00 0.00 0.00 0.00 0.00 0.00 0.00 0.00 0.00 0.00 0.00 0.00 0.00 0.00 0.00 0.00 0.00 0.00 0.00 0.00
0.00 0.00 0.00 0.00 0.00 0.00 0.00 0.00 0.00 0.00 0.00 0.00 0.00 0.00 0.00 0.00 0.00 0.00 0.00 0.00 0.00 0.00 0.00 0.00 0.00 0.00 0.00 0.00 0.00 0.00 0.00 0.00 0.00 0.00 0.00 0.00 0.00 0.00 0.00 0.00 0.00 0.00 0.00 0.00
0.00 0.00 0.00 0.00 0.00 0.00 0.00 0.00 0.00 0.00 0.00 0.00 0.00 0.00 0.00 0.00 0.00 0.00 0.00 0.00 0.00 0.00 0.00 0.00 0.00 0.00 0.00 0.00 0.00 0.00 0.00 0.00 0.00 0.00 0.00 0.00 0.00 0.00 0.00 0.00 0.00 0.00 0.00 0.00
0.00 0.00 0.00 0.00 0.00 0.00 0.00 0.00 0.00 0.00 0.00 0.00 0.00 0.00 0.00 0.00 0.00 0.00 0.00 0.00 0.00 0.00 0.00 0.00 0.00 0.00 0.00 0.00 0.00 0.00 0.00 0.00 0.00 0.00 0.00 0.00 0.00 0.00 0.00 0.00 0.00 0.00 0.00 0.00
0.00 0.00 0.00 0.00 0.00 0.00 0.00 0.00 0.00 0.00 0.00 0.00 0.00 0.00 0.00 0.00 0.00 0.00 0.00 0.00 0.00 0.00 0.00 0.00 0.00 0.00 0.00 0.00 0.00 0.00 0.00 0.00 0.00 0.00 0.00 0.00 0.00 0.00 0.00 0.00 0.00 0.00 0.00 0.00
0.00 0.00 0.00 0.00 0.00 0.00 0.00 0.00 0.00 0.00 0.00 0.00 0.00 0.00 0.00 0.00 0.00 0.00 0.00 0.00 0.00 0.00 0.00 0.00 0.00 0.00 0.00 0.00 0.00 0.00 0.00 0.00 0.00 0.00 0.00 0.00 0.00 0.00 0.00 0.00 0.00 0.00 0.00 0.00
0.00 0.00 0.00 0.00 0.00 0.00 0.00 0.00 0.00 0.00 0.00 0.00 0.00 0.00 0.00 0.00 0.00 0.00 0.00 0.00 0.00 0.00 0.00 0.00 0.00 0.00 0.00 0.00 0.00 0.00 0.00 0.00 0.00 0.00 0.00 0.00 0.00 0.00 0.00 0.00 0.01 0.01 0.00 0.00
0.00 0.00 0.00 0.00 0.00 0.00 0.00 0.00 0.00 0.00 0.00 0.00 0.00 0.00 0.00 0.00 0.00 0.00 0.00 0.00 0.00 0.00 0.00 0.00 0.00 0.00 0.00 0.00 0.00 0.00 0.00 0.00 0.00 0.00 0.00 0.00 0.01 0.01 0.01 0.01 0.01 0.00 0.00 0.00
0.00 0.00 0.00 0.00 0.00 0.00 0.00 0.00 0.00 0.00 0.00 0.00 0.00 0.00 0.00 0.00 0.00 0.00 0.00 0.00 0.00 0.00 0.00 0.00 0.00 0.00 0.00 0.00 0.00 0.00 0.00 0.00 0.00 0.00 0.01 0.01 0.01 0.01 0.01 0.01 0.00 0.00 0.00 0.00
0.00 0.00 0.00 0.00 0.00 0.00 0.00 0.00 0.00 0.00 0.00 0.00 0.00 0.00 0.00 0.00 0.00 0.00 0.00 0.00 0.00 0.00 0.00 0.00 0.00 0.00 0.00 0.00 0.00 0.00 0.00 0.00 0.00 0.00 0.00 0.01 0.01 0.00 0.00 0.00 0.00 0.00 0.00 0.00
0.00 0.00 0.00 0.00 0.00 0.00 0.00 0.00 0.00 0.00 0.00 0.00 0.00 0.00 0.00 0.00 0.00 0.00 0.00 0.00 0.00 0.00 0.00 0.00 0.00 0.00 0.00 0.00 0.00 0.00 0.00 0.00 0.00 0.00 0.00 0.00 0.00 0.00 0.00 0.00 0.00 0.00 0.00 0.00
0.00 0.00 0.00 0.00 0.00 0.00 0.00 0.00 0.00 0.00 0.00 0.00 0.00 0.00 0.00 0.00 0.00 0.00 0.00 0.00 0.01 0.00 0.00 0.00 0.00 0.00 0.00 0.00 0.00 0.00 0.00 0.00 0.00 0.00 0.00 0.00 0.00 0.00 0.00 0.00 0.00 0.00 0.00 0.00
0.00 0.00 0.00 0.00 0.00 0.00 0.00 0.00 0.00 0.00 0.00 0.00 0.00 0.00 0.00 0.00 0.00 0.00 0.00 0.01 0.01 0.01 0.01 0.00 0.00 0.00 0.00 0.00 0.00 0.00 0.00 0.00 0.00 0.00 0.00 0.00 0.00 0.00 0.00 0.00 0.00 0.00 0.00 0.00
0.00 0.00 0.00 0.00 0.00 0.00 0.00 0.00 0.00 0.00 0.00 0.00 0.00 0.00 0.00 0.00 0.01 0.01 0.01 0.01 0.01 0.00 0.00 0.00 0.00 0.00 0.00 0.00 0.00 0.00 0.00 0.00 0.00 0.00 0.00 0.00 0.00 0.00 0.00 0.00 0.00 0.00 0.00 0.00
0.00 0.00 0.00 0.00 0.00 0.00 0.00 0.00 0.00 0.00 0.00 0.00 0.00 0.00 0.00 0.00 0.00 0.00 0.00 0.00 0.00 0.00 0.00 0.00 0.01 0.00 0.00 0.00 0.00 0.01 0.00 0.00 0.01 0.01 0.01 0.00 0.00 0.00 0.00 0.00 0.00 0.00 0.00 0.00
0.00 0.00 0.00 0.00 0.00 0.00 0.00 0.00 0.00 0.00 0.00 0.00 0.00 0.00 0.00 0.00 0.00 0.00 0.00 0.00 0.00 0.00 0.00 0.00 0.00 0.01 0.00 0.01 0.01 0.01 0.01 0.01 0.01 0.01 0.01 0.01 0.01 0.01 0.00 0.00 0.00 0.00 0.00 0.00
0.00 0.00 0.00 0.00 0.00 0.00 0.00 0.00 0.00 0.00 0.00 0.00 0.00 0.00 0.00 0.00 0.00 0.00 0.00 0.00 0.00 0.00 0.00 0.00 0.00 0.00 0.01 0.01 0.01 0.01 0.01 0.01 0.01 0.01 0.01 0.01 0.01 0.01 0.01 0.01 0.01 0.01 0.00 0.00
MSLP
1020.07 1020.38 1020.65 1020.86 1020.98 1020.99 1020.87 1020.60 1020.19 1019.68 1019.10 1018.51 1017.96 1017.52 1017.21 1017.06 1017.07 1017.21 1017.45 1017.73 1018.00 1018.24 1018.42 1018.54 1018.60 1018.64 1018.68 1018.76 1018.91 1019.12 1019.41 1019.76 1020.14 1020.53 1020.91 1021.24 1021.51 1021.72 1021.86 1021.93 1021.93 1021.87 1021.76 1021.60
1020.23 1020.36 1020.43 1020.44 1020.36 1020.20 1019.96 1019.63 1019.23 1018.78 1018.31 1017.86 1017.47 1017.15 1016.95 1016.85 1016.85 1016.94 1017.08 1017.23 1017.38 1017.48 1017.55 1017.59 1017.60 1017.62 1017.66 1017.76 1017.94 1018.19 1018.51 1018.88 1019.30 1019.72 1020.12 1020.49 1020.80 1021.05 1021.23 1021.35 1021.39 1021.37 1021.29 1021.15
1020.44 1020.37 1020.21 1019.98 1019.68 1019.34 1018.96 1018.57 1018.17 1017.80 1017.46 1017.17 1016.94 1016.79 1016.71 1016.68 1016.71 1016.76 1016.82 1016.86 1016.88 1016.87 1016.83 1016.77 1016.73 1016.71 1016.74 1016.84 1017.03 1017.29 1017.63 1018.02 1018.44 1018.88 1019.31 1019.70 1020.05 1020.35 1020.57 1020.73 1020.82 1020.85 1020.80 1020.70
1020.65 1020.36 1019.96 1019.49 1018.97 1018.44 1017.94 1017.49 1017.11 1016.82 1016.61 1016.49 1016.44 1016.46 1016.51 1016.58 1016.64 1016.68 1016.69 1016.64 1016.55 1016.43 1016.29 1016.15 1016.03 1015.97 1015.98 1016.06 1016.24 1016.49 1016.82 1017.21 1017.64 1018.08 1018.52 1018.94 1019.32 1019.66 1019.93 1020.15 1020.29 1020.36 1020.35 1020.28
1020.78 1020.28 1019.66 1018.97 1018.26 1017.58 1016.98 1016.50 1016.15 1015.94 1015.86 1015.90 1016.02 1016.20 1016.38 1016.55 1016.66 1016.71 1016.67 1016.57 1016.39 1016.18 1015.95 1015.73 1015.56 1015.44 1015.40 1015.46 1015.60 1015.83 1016.14 1016.51 1016.92 1017.36 1017.81 1018.25 1018.66 1019.04 1019.37 1019.63 1019.82 1019.94 1019.97 1019.93
1020.75 1020.08 1019.29 1018.44 1017.59 1016.81 1016.16 1015.67 1015.36 1015.24 1015.29 1015.47 1015.74 1016.05 1016.35 1016.59 1016.75 1016.81 1016.75 1016.60 1016.37 1016.09 1015.79 1015.51 1015.27 1015.10 1015.02 1015.03 1015.13 1015.32 1015.59 1015.93 1016.32 1016.75 1017.20 1017.65 1018.10 1018.51 1018.89 1019.20 1019.43 1019.59 1019.65 1019.62
1020.51 1019.72 1018.83 1017.89 1016.99 1016.18 1015.53 1015.07 1014.82 1014.79 1014.94 1015.23 1015.62 1016.02 1016.40 1016.71 1016.90 1016.96 1016.89 1016.71 1016.44 1016.11 1015.76 1015.43 1015.14 1014.92 1014.79 1014.75 1014.81 1014.95 1015.18 1015.48 1015.84 1016.25 1016.70 1017.17 1017.63 1018.08 1018.49 1018.84 1019.11 1019.28 1019.35 1019.31
1020.03 1019.19 1018.28 1017.34 1016.46 1015.69 1015.10 1014.71 1014.55 1014.60 1014.84 1015.21 1015.66 1016.12 1016.54 1016.87 1017.07 1017.12 1017.04 1016.84 1016.54 1016.18 1015.80 1015.43 1015.11 1014.85 1014.67 1014.59 1014.59 1014.69 1014.87 1015.13 1015.47 1015.86 1016.30 1016.77 1017.25 1017.72 1018.15 1018.51 1018.79 1018.97 1019.03 1018.98
1019.30 1018.50 1017.64 1016.78 1016.00 1015.34 1014.86 1014.58 1014.51 1014.65 1014.94 1015.36 1015.83 1016.31 1016.72 1017.03 1017.22 1017.26 1017.16 1016.93 1016.62 1016.24 1015.84 1015.46 1015.11 1014.83 1014.61 1014.49 1014.45 1014.51 1014.65 1014.87 1015.18 1015.55 1015.98 1016.45 1016.93 1017.40 1017.83 1018.19 1018.47 1018.63 1018.67 1018.59
1018.38 1017.66 1016.92 1016.21 1015.59 1015.09 1014.76 1014.62 1014.65 1014.86 1015.19 1015.62 1016.08 1016.53 1016.90 1017.17 1017.32 1017.32 1017.20 1016.96 1016.63 1016.25 1015.85 1015.46 1015.10 1014.79 1014.56 1014.40 1014.33 1014.35 1014.47 1014.66 1014.94 1015.30 1015.72 1016.17 1016.64 1017.10 1017.51 1017.85 1018.10 1018.23 1018.23 1018.11
1017.32 1016.72 1016.15 1015.63 1015.21 1014.91 1014.75 1014.74 1014.88 1015.14 1015.50 1015.91 1016.33 1016.72 1017.03 1017.24 1017.33 1017.30 1017.15 1016.89 1016.56 1016.18 1015.78 1015.39 1015.03 1014.71 1014.47 1014.29 1014.20 1014.20 1014.29 1014.47 1014.74 1015.08 1015.49 1015.93 1016.38 1016.81 1017.19 1017.49 1017.69 1017.78 1017.73 1017.58
1016.23 1015.77 1015.38 1015.07 1014.85 1014.75 1014.75 1014.88 1015.10 1015.41 1015.76 1016.15 1016.51 1016.83 1017.07 1017.21 1017.25 1017.17 1016.99 1016.73 1016.39 1016.02 1015.63 1015.24 1014.88 1014.56 1014.31 1014.13 1014.03 1014.02 1014.11 1014.28 1014.55 1014.88 1015.28 1015.70 1016.13 1016.52 1016.86 1017.12 1017.27 1017.30 1017.21 1017.02
1015.19 1014.88 1014.67 1014.54 1014.52 1014.59 1014.74 1014.97 1015.26 1015.59 1015.94 1016.28 1016.59 1016.83 1017.00 1017.08 1017.07 1016.95 1016.75 1016.48 1016.15 1015.78 1015.39 1015.01 1014.65 1014.33 1014.08 1013.89 1013.80 1013.79 1013.89 1014.07 1014.34 1014.68 1015.07 1015.48 1015.89 1016.25 1016.55 1016.75 1016.85 1016.84 1016.72 1016.50
1014.30 1014.13 1014.06 1014.10 1014.23 1014.43 1014.70 1015.00 1015.33 1015.67 1015.99 1016.29 1016.54 1016.72 1016.83 1016.86 1016.81 1016.67 1016.46 1016.18 1015.85 1015.48 1015.10 1014.71 1014.36 1014.04 1013.78 1013.60 1013.51 1013.52 1013.63 1013.83 1014.12 1014.47 1014.86 1015.27 1015.65 1015.99 1016.25 1016.42 1016.48 1016.43 1016.28 1016.05
1013.63 1013.56 1013.62 1013.77 1014.01 1014.30 1014.63 1014.98 1015.32 1015.64 1015.94 1016.19 1016.38 1016.52 1016.58 1016.58 1016.50 1016.35 1016.13 1015.85 1015.51 1015.15 1014.76 1014.38 1014.02 1013.70 1013.44 1013.27 1013.19 1013.21 1013.34 1013.57 1013.87 1014.24 1014.65 1015.06 1015.43 1015.75 1015.99 1016.12 1016.16 1016.09 1015.93 1015.70
1013.21 1013.23 1013.36 1013.59 1013.89 1014.22 1014.57 1014.92 1015.24 1015.54 1015.79 1016.00 1016.15 1016.25 1016.28 1016.26 1016.16 1016.01 1015.78 1015.50 1015.17 1014.80 1014.41 1014.02 1013.65 1013.33 1013.07 1012.91 1012.84 1012.88 1013.03 1013.29 1013.62 1014.01 1014.43 1014.84 1015.21 1015.52 1015.74 1015.86 1015.89 1015.82 1015.66 1015.45
1013.05 1013.13 1013.31 1013.57 1013.88 1014.21 1014.54 1014.85 1015.14 1015.39 1015.59 1015.75 1015.87 1015.94 1015.95 1015.91 1015.81 1015.66 1015.43 1015.15 1014.82 1014.45 1014.05 1013.65 1013.28 1012.95 1012.70 1012.54 1012.49 1012.55 1012.73 1013.00 1013.36 1013.76 1014.19 1014.61 1014.98 1015.28 1015.50 1015.63 1015.65 1015.59 1015.46 1015.27
1013.12 1013.23 1013.42 1013.68 1013.96 1014.26 1014.54 1014.80 1015.02 1015.21 1015.37 1015.48 1015.56 1015.60 1015.60 1015.55 1015.45 1015.29 1015.07 1014.79 1014.46 1014.08 1013.69 1013.29 1012.91 1012.59 1012.34 1012.19 1012.16 1012.24 1012.44 1012.73 1013.10 1013.52 1013.95 1014.37 1014.74 1015.04 1015.26 1015.39 1015.43 1015.39 1015.29 1015.13
1013.35 1013.47 1013.66 1013.88 1014.12 1014.35 1014.56 1014.75 1014.90 1015.03 1015.12 1015.19 1015.23 1015.24 1015.22 1015.17 1015.06 1014.90 1014.68 1014.40 1014.07 1013.70 1013.31 1012.91 1012.55 1012.24 1012.01 1011.89 1011.87 1011.98 1012.19 1012.49 1012.87 1013.29 1013.72 1014.13 1014.49 1014.79 1015.01 1015.14 1015.20 1015.18 1015.11 1014.99
1013.65 1013.77 1013.93 1014.11 1014.28 1014.44 1014.57 1014.68 1014.75 1014.81 1014.84 1014.86 1014.87 1014.85 1014.81 1014.74 1014.63 1014.46 1014.24 1013.97 1013.65 1013.28 1012.91 1012.53 1012.19 1011.91 1011.71 1011.62 1011.63 1011.76 1011.98 1012.30 1012.67 1013.08 1013.50 1013.89 1014.24 1014.52 1014.73 1014.87 1014.94 1014.95 1014.90 1014.82
1013.96 1014.05 1014.17 1014.29 1014.39 1014.47 1014.52 1014.55 1014.55 1014.54 1014.52 1014.49 1014.46 1014.41 1014.35 1014.26 1014.13 1013.96 1013.74 1013.47 1013.16 1012.83 1012.48 1012.14 1011.84 1011.60 1011.44 1011.39 1011.44 1011.59 1011.83 1012.15 1012.52 1012.91 1013.30 1013.67 1013.99 1014.25 1014.45 1014.59 1014.66 1014.68 1014.66 1014.60
1014.18 1014.24 1014.31 1014.36 1014.39 1014.40 1014.38 1014.34 1014.27 1014.21 1014.13 1014.06 1013.99 1013.91 1013.82 1013.71 1013.57 1013.39 1013.18 1012.92 1012.63 1012.32 1012.01 1011.72 1011.48 1011.29 1011.19 1011.19 1011.27 1011.45 1011.71 1012.03 1012.39 1012.77 1013.14 1013.47 1013.76 1014.00 1014.18 1014.31 1014.38 1014.40 1014.39 1014.34
1014.27 1014.29 1014.30 1014.29 1014.25 1014.19 1014.11 1014.01 1013.90 1013.79 1013.67 1013.57 1013.46 1013.36 1013.24 1013.11 1012.96 1012.78 1012.56 1012.32 1012.06 1011.79 1011.52 1011.29 1011.11 1010.99 1010.95 1011.00 1011.13 1011.34 1011.62 1011.95 1012.30 1012.66 1013.00 1013.30 1013.56 1013.77 1013.93 1014.04 1014.10 1014.12 1014.10 1014.05
1014.21 1014.17 1014.12 1014.05 1013.96 1013.85 1013.72 1013.58 1013.43 1013.29 1013.15 1013.02 1012.89 1012.76 1012.63 1012.48 1012.32 1012.14 1011.93 1011.70 1011.47 1011.24 1011.03 1010.85 1010.73 1010.68 1010.70 1010.81 1010.99 1011.24 1011.54 1011.87 1012.22 1012.56 1012.88 1013.16 1013.39 1013.57 1013.70 1013.79 1013.83 1013.84 1013.80 1013.73
1013.97 1013.88 1013.78 1013.66 1013.53 1013.38 1013.22 1013.05 1012.89 1012.73 1012.57 1012.43 1012.29 1012.15 1012.01 1011.85 1011.68 1011.50 1011.30 1011.10 1010.89 1010.70 1010.54 1010.43 1010.37 1010.37 1010.46 1010.61 1010.84 1011.12 1011.44 1011.78 1012.13 1012.46 1012.76 1013.02 1013.23 1013.39 1013.50 1013.55 1013.57 1013.55 1013.50 1013.40
1013.57 1013.44 1013.29 1013.14 1012.97 1012.80 1012.62 1012.45 1012.28 1012.12 1011.96 1011.82 1011.68 1011.54 1011.39 1011.24 1011.08 1010.90 1010.71 1010.53 1010.36 1010.20 1010.09 1010.02 1010.02 1010.08 1010.21 1010.41 1010.67 1010.98 1011.31 1011.67 1012.01 1012.34 1012.63 1012.87 1013.06 1013.20 1013.28 1013.32 1013.31 1013.26 1013.17 1013.04
1013.04 1012.87 1012.69 1012.51 1012.32 1012.14 1011.95 1011.78 1011.63 1011.47 1011.33 1011.20 1011.07 1010.94 1010.81 1010.66 1010.51 1010.34 1010.18 1010.02 1009.87 1009.76 1009.68 1009.66 1009.70 1009.80 1009.97 1010.20 1010.48 1010.81 1011.16 1011.51 1011.86 1012.18 1012.46 1012.69 1012.86 1012.98 1013.04 1013.05 1013.01 1012.93 1012.80 1012.63
Thickness
5512 5515 5515 5517 5520 5515 5512 5513 5514 5523 5522 5541 5539 5536 5535 5534 5531 5529 5528 5527 5524 5522 5519 5516 5514 5512 5509 5507 5504 5502 5498 5495 5493 5490 5487 5484 5480 5477 5474 5472 5469 5467 5465 5463
5509 5516 5512 5514 5521 5519 5520 5520 5522 5524 5532 5545 5539 5534 5531 5530 5529 5528 5528 5527 5525 5522 5519 5516 5514 5512 5508 5505 5502 5498 5494 5492 5489 5485 5481 5478 5474 5471 5468 5465 5462 5459 5457 5455
5504 5506 5512 5523 5534 5529 5525 5525 5525 5527 5538 5540 5536 5535 5534 5533 5531 5529 5527 5526 5524 5522 5519 5517 5514 5511 5507 5504 5499 5494 5491 5488 5484 5480 5476 5472 5469 5465 5461 5457 5454 5452 5449 5447
5497 5504 5519 5545 5545 5536 5532 5533 5529 5533 5536 5535 5535 5535 5532 5531 5528 5527 5527 5525 5523 5520 5518 5516 5513 5509 5505 5500 5495 5491 5487 5483 5480 5475 5471 5467 5462 5458 5454 5450 5447 5444 5441 5438
5494 5492 5510 5536 5540 5534 5530 5536 5538 5534 5536 5534 5531 5529 5531 5534 5530 5528 5526 5523 5520 5518 5515 5512 5509 5506 5501 5496 5491 5486 5483 5479 5475 5470 5465 5460 5456 5452 5448 5443 5440 5436 5434 5430
5491 5497 5518 5547 5544 5536 5534 5537 5543 5534 5533 5530 5527 5523 5530 5534 5529 5525 5522 5519 5516 5513 5510 5507 5505 5500 5496 5491 5486 5483 5480 5476 5470 5465 5460 5455 5450 5446 5441 5437 5433 5430 5426 5422
5488 5492 5512 5530 5534 5533 5529 5540 5542 5534 5531 5526 5521 5525 5528 5526 5522 5521 5518 5515 5512 5508 5505 5503 5499 5494 5490 5486 5483 5481 5476 5470 5465 5460 5454 5449 5444 5439 5434 5430 5426 5421 5418 5414
5488 5489 5512 5533 5524 5523 5530 5532 5532 5529 5526 5521 5520 5520 5519 5518 5516 5514 5511 5509 5506 5502 5500 5497 5492 5488 5485 5482 5480 5475 5469 5463 5458 5453 5448 5443 5437 5432 5427 5421 5416 5412 5408 5404
5502 5520 5528 5523 5522 5524 5521 5520 5522 5520 5519 5516 5514 5513 5513 5512 5510 5508 5505 5502 5500 5496 5493 5490 5486 5482 5479 5478 5473 5467 5461 5456 5451 5446 5440 5435 5429 5424 5418 5413 5408 5405 5401 5397
5492 5511 5515 5514 5512 5514 5512 5511 5512 5511 5510 5508 5507 5507 5505 5504 5502 5500 5499 5496 5493 5489 5486 5484 5480 5476 5474 5471 5465 5460 5454 5449 5443 5437 5431 5426 5422 5417 5411 5406 5401 5398 5394 5390
5486 5502 5504 5513 5510 5510 5509 5506 5504 5504 5502 5501 5500 5500 5499 5497 5495 5494 5492 5489 5486 5482 5481 5479 5475 5471 5468 5462 5457 5451 5446 5441 5435 5430 5424 5418 5414 5409 5405 5401 5395 5391 5387 5382
5501 5506 5499 5506 5506 5503 5501 5500 5498 5496 5496 5496 5493 5493 5491 5489 5488 5486 5484 5481 5478 5475 5473 5471 5468 5464 5460 5455 5450 5444 5439 5433 5427 5421 5416 5410 5405 5400 5398 5393 5390 5386 5381 5376
5498 5499 5494 5496 5495 5494 5492 5492 5490 5488 5488 5487 5486 5484 5482 5481 5480 5477 5475 5472 5471 5469 5466 5463 5459 5456 5453 5447 5442 5437 5432 5426 5420 5414 5408 5402 5397 5392 5387 5384 5380 5376 5372 5368
5485 5482 5483 5486 5485 5484 5482 5482 5481 5479 5478 5477 5476 5475 5472 5471 5469 5468 5466 5465 5462 5460 5457 5454 5451 5448 5445 5439 5434 5429 5423 5419 5413 5406 5400 5395 5389 5384 5379 5374 5369 5365 5361 5358
5474 5471 5473 5475 5473 5472 5471 5470 5469 5469 5469 5468 5466 5464 5462 5460 5460 5459 5457 5455 5451 5449 5448 5445 5442 5440 5436 5430 5425 5420 5414 5409 5403 5397 5392 5387 5381 5376 5370 5365 5360 5356 5351 5347
5466 5463 5461 5461 5461 5461 5460 5459 5458 5459 5458 5457 5456 5454 5453 5451 5449 5448 5446 5443 5440 5440 5439 5436 5434 5432 5426 5421 5416 5410 5405 5401 5395 5388 5383 5378 5373 5367 5362 5357 5352 5347 5343 5338
5452 5453 5453 5452 5452 5451 5449 5448 5447 5447 5447 5446 5445 5444 5441 5439 5437 5437 5437 5434 5432 5430 5429 5426 5425 5422 5417 5412 5407 5401 5395 5391 5387 5380 5375 5370 5365 5360 5355 5349 5344 5339 5335 5331
5441 5442 5441 5440 5440 5439 5439 5439 5437 5436 5436 5436 5435 5432 5430 5428 5428 5428 5427 5423 5421 5419 5419 5417 5415 5412 5407 5403 5397 5392 5386 5382 5377 5372 5367 5362 5357 5352 5347 5342 5337 5332 5328 5323
5432 5431 5430 5430 5429 5428 5428 5428 5428 5427 5426 5424 5422 5421 5420 5419 5417 5416 5414 5411 5409 5410 5411 5409 5407 5402 5398 5393 5389 5383 5378 5373 5368 5364 5359 5355 5350 5344 5339 5334 5329 5325 5320 5315
5422 5422 5421 5421 5420 5418 5417 5418 5417 5416 5416 5413 5412 5411 5410 5410 5408 5406 5403 5402 5403 5403 5402 5399 5396 5392 5388 5384 5379 5373 5369 5364 5360 5355 5350 5346 5341 5336 5331 5327 5322 5317 5313 5308
5412 5411 5411 5410 5411 5410 5409 5408 5407 5407 5407 5404 5402 5402 5402 5402 5399 5395 5393 5395 5398 5394 5391 5390 5386 5382 5378 5375 5371 5365 5360 5356 5352 5347 5343 5338 5333 5328 5324 5319 5314 5310 5305 5301
5401 5400 5401 5400 5400 5401 5401 5399 5397 5397 5396 5395 5394 5393 5391 5391 5391 5389 5388 5387 5389 5386 5383 5380 5377 5374 5371 5367 5362 5357 5352 5348 5343 5339 5335 5330 5326 5321 5316 5312 5307 5303 5298 5293
5391 5391 5391 5391 5390 5391 5391 5390 5388 5387 5387 5387 5387 5386 5385 5385 5383 5381 5383 5383 5379 5378 5375 5371 5369 5367 5364 5359 5354 5349 5345 5340 5336 5331 5327 5323 5318 5314 5309 5304 5299 5295 5290 5286
5381 5382 5381 5381 5379 5378 5381 5384 5382 5381 5380 5380 5380 5379 5377 5376 5377 5376 5375 5375 5373 5370 5367 5365 5363 5360 5357 5351 5346 5342 5338 5333 5329 5324 5320 5315 5311 5306 5301 5297 5292 5288 5283 5279
5371 5371 5370 5369 5369 5372 5374 5374 5373 5373 5372 5373 5373 5372 5370 5369 5368 5369 5366 5365 5364 5362 5359 5357 5356 5353 5349 5343 5339 5335 5331 5326 5321 5316 5312 5308 5303 5299 5294 5290 5285 5280 5276 5272
5362 5363 5364 5364 5364 5365 5364 5363 5363 5365 5364 5364 5366 5365 5363 5362 5360 5359 5357 5356 5354 5353 5351 5349 5347 5344 5340 5336 5332 5327 5323 5319 5315 5311 5306 5302 5297 5292 5288 5283 5278 5274 5270 5266
5353 5353 5354 5355 5357 5356 5355 5354 5354 5356 5356 5356 5357 5358 5355 5354 5352 5350 5349 5348 5346 5345 5343 5341 5338 5335 5332 5328 5324 5320 5316 5312 5308 5304 5300 5295 5291 5286 5282 5277 5272 5268 5264 5261